Theta_e
309 311 312 311 310 313 312 313 314 314 313 314 315 314 315 313 312 311 311 310 309 307 309 310 310 311 313 339 343 342 346 344 343 346 344 342 340 339 338 337 333 330 328 336
310 311 311 310 310 311 312 313 314 313 313 313 314 314 314 314 312 312 313 312 311 308 308 309 310 310 328 336 341 344 344 347 347 345 344 341 340 340 340 338 335 329 328 337
308 309 312 312 313 313 313 313 314 314 314 314 315 318 317 314 312 312 312 312 311 310 309 309 309 311 333 341 341 342 344 344 344 342 342 341 340 339 339 338 336 334 332 335
312 310 313 312 313 313 314 314 317 319 318 320 316 322 317 315 314 312 312 311 312 312 309 308 308 315 331 338 340 342 343 342 343 342 341 340 339 338 338 336 337 336 337 335
314 314 313 313 314 316 317 318 319 316 315 313 315 318 316 314 313 311 311 312 312 312 310 308 308 311 326 327 332 341 342 342 341 342 341 339 337 337 337 339 341 341 340 338
315 313 312 312 318 318 316 313 313 312 312 317 315 317 315 315 314 313 312 312 312 311 310 307 307 309 321 331 322 339 341 343 342 340 341 340 338 339 342 342 343 342 342 344
313 313 312 316 316 312 311 313 318 307 316 316 316 314 317 315 314 314 312 311 311 310 309 309 307 306 310 324 335 333 341 342 343 341 341 343 340 340 343 343 342 342 339 343
315 316 313 313 314 314 313 316 318 310 309 312 311 313 313 313 314 313 312 312 311 310 308 308 307 307 307 319 330 336 340 341 341 342 340 343 343 342 344 343 341 340 341 342
316 316 312 312 312 313 315 316 314 318 310 317 314 312 311 311 312 311 311 312 312 310 309 308 307 307 308 311 324 333 335 340 341 340 340 341 343 345 344 343 341 339 339 340
315 317 313 314 314 314 315 314 315 320 318 317 315 314 315 312 310 311 313 310 310 310 309 309 308 308 308 310 317 328 333 336 339 340 340 341 343 344 343 341 340 339 338 335
312 312 315 314 315 314 314 316 316 316 316 320 318 314 309 311 311 310 311 311 310 311 311 310 310 311 312 309 315 323 330 335 338 339 340 342 343 343 342 340 338 337 334 333
311 313 318 316 314 313 312 314 316 319 319 319 319 317 312 312 310 312 313 314 312 311 309 310 311 313 319 312 308 324 328 333 337 338 342 343 342 341 339 336 335 334 332 327
311 316 317 315 312 312 317 316 314 316 316 318 318 315 311 312 312 312 312 312 309 308 308 308 309 312 315 321 314 319 330 333 337 338 342 341 339 338 335 332 331 329 326 323
315 316 317 318 316 314 315 315 315 316 317 315 315 314 312 312 312 308 308 310 309 306 307 307 308 310 313 320 322 318 331 335 336 337 340 339 338 335 333 330 328 327 326 321
313 318 316 313 314 313 313 314 314 314 314 317 315 315 313 313 310 308 307 308 308 306 306 306 307 307 309 312 325 322 334 336 336 337 338 337 334 332 330 326 325 323 322 320
312 317 315 313 312 312 313 313 314 315 315 316 316 316 309 308 307 307 308 308 306 305 305 305 306 306 307 311 326 326 337 337 338 337 337 334 331 328 326 323 322 321 319 317
314 314 316 316 311 312 311 313 313 311 311 310 310 309 307 307 307 306 306 306 304 304 304 304 305 305 306 308 323 333 337 339 338 336 333 331 329 325 323 321 320 319 318 318
311 314 315 315 312 313 312 308 308 309 308 308 308 308 307 306 304 304 303 303 303 303 303 303 304 304 305 314 328 334 336 337 337 334 331 329 325 321 319 318 316 315 316 318
307 314 316 316 314 313 312 308 307 307 308 306 306 305 303 303 302 302 301 301 301 301 302 302 302 303 306 320 326 332 333 332 333 331 328 325 322 320 318 315 315 315 315 314
311 309 314 314 315 315 309 308 306 303 305 304 302 303 302 301 302 301 302 304 303 303 301 301 302 303 308 322 325 332 330 330 328 326 323 320 318 316 314 312 313 312 312 311
308 308 312 312 314 312 308 310 305 308 308 303 301 301 300 301 301 301 301 302 303 302 303 302 303 308 321 321 327 327 327 324 321 319 317 315 314 312 311 311 311 311 309 306
313 313 310 313 314 314 309 309 308 305 301 301 299 300 301 301 305 308 305 302 302 302 303 303 306 322 321 320 320 319 318 316 315 313 312 311 311 310 310 309 307 307 306 303
313 312 313 313 314 312 311 306 303 301 298 298 298 299 300 305 310 309 309 305 303 304 305 306 321 322 319 317 314 313 312 311 310 308 307 307 306 306 306 306 305 304 304 301
307 306 312 312 310 310 306 304 302 300 297 297 296 300 306 309 316 308 306 306 306 309 317 322 321 320 317 314 311 309 308 307 306 304 303 302 302 302 303 304 304 304 303 301
309 308 310 310 309 305 305 303 301 298 297 298 302 305 313 320 323 321 321 320 320 319 319 318 318 316 314 313 311 309 307 305 304 303 302 302 301 300 299 298 300 301 301 301
301 306 309 312 303 302 302 301 300 298 300 301 304 307 315 317 321 319 318 317 317 316 316 316 315 314 313 311 309 307 305 304 303 302 301 300 299 298 297 295 295 298 300 301
Wind_Speed
2 1 7 13 13 16 10 9 15 14 13 5 16 16 25 9 8 11 10 9 8 9 9 12 15 17 23 20 23 31 29 37 34 34 33 31 31 32 33 31 29 28 27 23
4 6 12 7 8 10 12 13 17 16 13 7 12 18 26 15 12 13 15 12 9 6 6 7 13 13 22 25 26 23 34 37 42 38 40 29 31 33 34 33 30 29 29 25
5 7 5 10 13 13 14 10 15 13 4 6 7 22 23 16 16 14 13 13 9 9 10 9 9 18 22 24 28 33 29 37 40 37 37 23 25 18 24 28 29 29 29 25
6 4 8 12 11 8 9 4 6 5 4 6 4 15 21 9 17 13 11 10 13 12 7 9 10 12 22 29 28 30 29 30 37 34 34 32 26 20 21 33 32 31 29 28
8 5 16 16 6 3 6 4 6 7 10 5 7 6 9 3 8 10 10 14 12 10 8 9 11 18 27 31 26 32 33 31 31 37 34 33 29 25 24 24 27 33 34 29
9 4 5 6 4 3 2 4 13 4 2 6 12 12 8 4 7 6 7 9 9 8 8 9 15 23 23 26 29 27 28 31 32 32 33 36 30 26 23 25 23 26 32 37
9 4 6 4 3 3 6 5 4 5 3 6 2 5 13 9 12 9 10 8 6 7 7 8 9 9 16 24 24 26 29 30 35 36 34 33 35 29 29 30 28 26 31 35
4 16 2 1 5 8 7 6 3 5 3 4 6 6 6 10 13 9 7 6 4 7 6 9 10 11 17 25 29 25 26 26 32 33 40 34 36 33 32 32 31 32 34 39
5 10 11 15 20 3 1 4 1 5 6 7 5 5 9 14 13 10 9 5 6 7 7 5 7 7 18 24 28 31 29 27 32 39 38 33 36 33 31 31 30 31 36 40
5 19 3 1 3 7 7 4 1 3 4 6 5 4 9 7 8 6 5 7 7 5 6 6 4 7 15 25 32 32 31 32 33 35 38 33 31 34 32 33 33 35 39 38
4 6 9 8 4 4 1 3 5 3 3 4 5 5 7 8 8 6 6 6 6 7 7 6 6 7 12 18 26 30 31 26 28 31 34 34 29 31 33 32 37 40 42 40
5 4 8 16 20 10 6 6 5 4 3 5 5 9 8 18 3 3 4 7 6 4 6 8 6 8 9 11 24 28 26 28 33 34 33 34 33 35 35 37 39 44 45 40
3 3 8 6 1 2 2 4 7 10 6 17 14 8 2 1 6 7 13 6 5 8 8 9 11 11 9 10 17 25 23 26 30 35 33 35 38 36 34 36 38 41 37 39
8 4 8 12 14 14 20 19 15 15 9 15 18 31 17 19 19 13 16 17 12 8 8 8 10 11 9 17 17 21 21 29 32 36 35 35 38 39 38 38 39 40 40 36
2 7 9 12 18 21 24 25 24 22 24 19 26 25 20 15 13 16 15 14 13 11 13 10 11 12 12 18 21 21 22 30 34 34 34 34 40 41 43 40 40 39 40 36
3 5 6 12 21 18 23 21 18 22 24 25 27 24 11 15 10 15 16 11 10 12 14 15 14 14 13 14 22 20 27 33 37 34 32 36 44 45 43 45 45 47 40 42
3 3 4 17 10 18 9 4 1 4 5 6 14 20 21 24 24 18 17 14 14 17 17 17 16 13 13 19 25 19 29 37 37 35 35 39 45 44 42 45 46 47 46 48
3 4 4 6 10 4 3 3 3 8 16 17 23 26 19 13 15 17 20 20 21 21 20 20 14 14 21 25 21 19 27 39 37 34 38 38 43 45 45 42 40 37 41 53
6 3 5 4 5 18 5 3 4 11 35 16 15 8 17 24 25 30 25 23 24 22 20 17 16 21 23 20 19 21 29 35 35 36 39 38 42 43 43 42 41 42 44 44
1 5 4 7 5 5 2 4 9 12 13 3 13 26 28 21 17 20 10 7 8 12 13 12 20 19 23 12 13 18 27 28 33 35 37 39 44 43 41 43 47 38 40 44
8 5 6 9 8 8 3 9 7 3 9 26 27 28 25 18 18 28 26 16 13 10 7 15 16 14 10 7 13 19 27 32 37 33 38 40 44 45 47 48 49 46 40 40
4 5 3 4 4 6 4 15 11 10 20 23 29 29 27 27 25 21 22 17 13 10 8 15 11 11 16 18 26 23 23 34 42 41 37 39 43 43 49 51 43 45 44 42
4 6 6 3 8 21 16 13 16 16 19 23 25 30 28 29 21 5 6 9 9 9 9 16 12 20 23 22 27 31 30 39 41 45 39 36 41 45 45 50 44 38 40 38
5 4 4 5 8 12 13 11 14 19 20 25 22 25 25 20 3 7 10 9 8 10 11 20 20 18 21 28 30 35 39 43 45 45 42 41 35 40 44 41 36 37 35 33
7 3 4 9 12 12 4 16 18 22 24 23 25 21 12 5 6 10 13 13 14 14 17 24 18 20 27 32 32 33 39 44 43 43 43 42 45 35 41 34 32 33 28 36
3 5 2 9 4 4 14 16 22 21 23 25 23 22 12 11 10 14 15 14 14 14 20 20 26 29 30 33 34 36 39 43 45 41 39 40 43 36 40 37 36 32 38 41
Wind_Direction
6 80 243 238 217 249 265 256 261 272 272 271 274 281 279 277 246 265 263 258 250 222 270 277 267 253 245 224 216 184 186 196 195 193 199 207 206 206 203 202 199 196 194 199
339 243 256 311 288 266 264 261 264 270 269 221 271 275 278 281 256 243 258 246 244 193 219 245 255 233 233 229 220 213 193 191 197 198 200 203 197 206 209 204 200 192 191 193
236 261 318 319 306 287 277 259 271 264 285 250 279 277 285 284 260 258 240 239 240 216 199 228 222 223 217 221 215 223 204 194 192 191 195 192 189 198 199 206 202 192 188 189
259 261 311 314 299 273 286 298 309 290 329 278 131 288 287 266 262 245 246 233 236 235 196 215 214 212 213 221 213 208 210 205 195 192 189 187 186 187 194 198 197 191 188 186
258 287 312 310 248 303 260 307 275 271 272 285 223 259 275 165 272 257 234 240 241 239 206 206 221 217 211 220 222 212 203 205 197 196 192 189 191 195 193 187 188 186 183 179
252 270 235 226 276 266 356 336 317 313 212 250 214 204 271 226 228 253 239 235 248 239 222 207 220 229 221 215 212 214 196 200 198 201 197 196 192 187 182 175 167 170 174 169
301 251 268 209 258 319 57 358 300 332 210 237 295 282 256 281 270 252 259 261 253 253 231 216 199 226 227 222 224 207 199 189 199 203 201 199 196 195 181 167 166 169 164 158
309 314 224 110 204 289 285 184 220 253 244 268 324 252 260 251 268 290 276 261 294 321 266 212 207 203 214 220 217 209 198 209 196 202 202 206 198 196 184 173 171 168 158 162
325 285 298 276 279 214 180 200 209 265 234 267 228 297 290 260 272 278 271 282 318 325 325 275 251 223 218 223 215 213 202 202 194 196 199 200 203 194 178 175 170 158 163 162
242 295 269 333 272 219 162 167 255 207 270 262 261 242 236 279 285 298 337 344 314 317 357 18 330 285 261 234 227 214 211 196 201 191 194 193 194 188 174 168 167 165 162 160
257 218 277 320 251 204 129 249 224 251 226 269 288 242 223 240 258 286 298 315 320 342 337 332 315 292 286 255 236 222 207 193 187 190 184 181 186 174 174 168 165 164 161 161
229 252 279 285 283 302 230 242 206 232 244 241 256 251 264 271 259 174 263 288 316 326 316 316 317 313 326 287 240 229 212 186 184 188 179 176 172 167 163 161 161 162 158 155
192 247 298 297 85 198 253 219 213 235 252 249 262 260 73 222 305 326 323 315 315 320 326 331 326 314 318 308 273 232 205 190 180 176 173 172 158 156 156 153 153 152 145 145
219 228 238 281 277 295 285 267 255 257 257 275 251 272 276 279 297 330 315 303 312 316 319 312 310 305 313 312 281 243 209 183 175 173 178 167 153 154 152 150 148 145 148 141
205 259 256 250 271 283 274 275 273 262 263 260 276 271 273 286 296 298 290 280 286 298 305 297 294 299 303 304 289 247 198 180 174 171 171 170 148 148 147 140 140 137 139 134
231 274 267 275 285 276 281 277 265 266 265 265 265 273 273 268 266 283 272 257 266 277 278 281 279 284 290 293 288 231 185 176 170 166 167 159 145 141 142 138 138 142 136 131
230 267 279 294 303 305 290 299 260 300 288 278 286 289 296 289 285 275 269 261 265 271 271 271 271 275 276 276 276 224 183 166 167 161 156 153 144 138 138 141 142 140 140 138
247 247 278 294 323 292 218 101 281 259 267 267 268 281 293 287 286 277 261 263 265 260 259 260 261 264 268 275 235 216 164 154 153 152 152 153 141 137 138 138 135 137 133 137
211 307 291 286 280 278 319 31 312 311 300 287 269 291 296 297 293 275 264 257 247 243 245 249 247 251 266 266 208 211 170 153 142 147 151 148 143 138 138 134 133 131 128 129
188 235 252 295 282 292 235 251 290 289 279 85 323 300 291 297 290 281 288 248 223 223 242 237 233 245 264 262 225 185 140 141 133 156 146 143 138 134 133 130 126 125 129 130
312 292 249 266 265 264 215 313 310 287 305 320 308 299 297 284 260 270 276 264 266 278 265 217 216 232 181 169 150 129 134 137 135 138 132 134 133 134 128 126 127 129 125 124
283 298 281 268 274 285 290 326 324 292 296 299 299 301 301 296 291 271 246 239 238 241 203 200 210 157 121 118 117 117 118 121 125 121 123 127 128 127 129 125 124 127 128 124
276 219 285 261 267 291 318 304 299 296 289 298 301 301 300 302 311 18 167 189 201 189 183 192 172 114 109 117 126 118 122 121 119 115 117 120 121 123 123 119 124 125 127 126
275 193 238 297 273 299 308 315 301 308 302 300 296 296 300 288 34 78 106 129 166 186 171 125 121 116 114 118 119 118 122 120 117 113 112 111 110 115 116 119 126 126 127 132
267 328 256 260 284 316 267 321 314 315 310 312 316 323 322 35 99 97 96 97 98 102 107 111 114 113 117 121 120 123 123 118 113 113 114 114 106 105 105 103 116 126 139 144
193 230 267 298 346 284 307 316 321 320 324 325 334 339 16 37 73 85 87 81 85 90 102 105 109 111 114 115 114 118 120 119 117 112 111 110 109 111 111 113 111 126 140 145